Dewpoint
48 48 47 47 46 45 45 45 45 45 46 46 46 45 45 46 46 47 46 47 48 48 47 47 46 46 43 36 34 46 48 48 42 54 48 41 40 31 25 26 27 26 21 21 21 23 28
48 48 47 47 46 46 44 45 44 44 45 46 46 46 46 47 47 47 47 48 48 48 48 48 46 46 39 30 45 45 44 43 41 50 48 45 40 31 25 23 23 26 21 18 23 27 28
47 46 48 46 46 46 45 44 44 45 45 46 47 48 48 48 48 48 48 47 47 48 48 48 46 41 36 32 42 45 44 44 42 40 49 43 41 31 27 24 25 22 22 22 22 26 27
47 47 47 46 45 45 44 45 44 44 46 46 48 48 48 48 48 46 45 45 46 48 49 47 46 38 29 34 44 45 44 44 42 43 47 43 41 32 27 27 24 21 18 17 18 25 29
47 46 46 46 45 45 45 44 44 44 44 45 47 48 48 48 47 45 45 45 43 46 47 46 40 37 25 40 33 41 45 43 43 46 51 44 40 34 27 23 21 18 12 13 16 24 29
47 47 46 45 45 44 44 43 43 44 44 45 46 47 46 47 47 46 46 41 41 37 38 42 36 36 31 31 35 34 44 45 45 49 50 39 36 32 26 20 19 14 8 11 13 21 27
46 46 45 46 45 44 44 43 44 44 44 45 45 46 45 44 45 45 41 35 31 29 31 29 29 29 31 35 32 35 45 43 42 48 42 39 33 27 27 21 12 12 8 8 9 19 25
46 46 46 46 44 44 44 44 43 44 44 45 45 46 46 43 46 45 39 33 35 36 30 28 31 32 32 35 33 32 44 38 39 40 41 38 33 28 25 19 15 12 9 8 16 23 21
46 46 45 44 44 44 44 43 44 44 44 45 45 46 46 42 45 42 38 38 42 40 31 23 31 31 32 33 32 33 41 38 37 39 39 36 31 27 25 22 18 13 10 10 14 23 20
46 45 45 44 44 43 43 43 44 44 44 44 45 46 47 41 40 39 36 40 42 41 29 20 25 31 31 32 32 37 39 37 36 39 37 34 31 28 25 23 16 12 11 11 18 20 12
46 44 44 44 44 44 44 44 44 44 44 44 44 46 47 38 37 34 35 39 43 39 13 22 25 31 30 31 31 38 40 39 34 36 39 36 32 32 27 24 17 15 18 17 21 18 13
45 45 44 44 44 44 44 44 44 44 44 43 44 46 42 31 32 31 35 41 38 28 15 23 25 25 29 30 30 36 36 38 39 37 39 37 34 32 28 24 22 24 22 22 22 20 23
45 45 44 44 44 44 44 44 44 44 43 43 44 45 33 29 29 34 38 35 30 18 20 22 22 24 29 30 31 32 34 31 33 33 34 35 33 32 29 25 26 22 18 25 22 29 12
45 44 44 44 44 44 44 43 43 43 42 43 44 42 36 27 33 35 36 33 17 19 21 22 22 23 26 27 28 31 34 33 35 34 34 34 30 31 29 24 23 21 17 22 19 11 9
45 44 44 43 44 44 44 44 43 43 42 43 42 36 31 31 34 37 35 24 20 23 23 24 23 21 22 26 29 31 31 32 33 36 33 34 32 32 28 25 23 23 19 12 17 16 11
44 44 44 43 43 44 44 44 43 43 42 41 31 27 29 33 35 33 35 22 20 21 21 24 21 21 22 24 26 31 31 33 31 35 35 36 31 31 29 28 26 22 20 19 20 21 8
45 45 45 44 43 43 43 43 42 42 41 39 30 16 30 34 35 32 26 21 20 21 22 22 23 22 23 25 27 29 28 31 31 32 35 35 31 32 28 26 23 23 20 18 16 19 22
45 45 45 44 42 43 43 43 42 42 40 36 28 26 33 35 31 33 25 20 22 20 22 21 22 22 22 23 25 27 27 29 27 35 33 35 34 29 30 28 26 22 20 17 18 15 21
44 44 44 44 43 42 42 43 41 41 39 33 35 23 32 33 28 27 19 18 20 20 20 21 18 20 20 20 21 22 22 23 26 33 31 34 34 30 31 30 29 25 21 19 16 16 15
44 45 45 44 44 42 42 42 40 41 39 32 37 32 28 27 26 25 22 18 18 21 20 19 18 19 20 19 20 19 20 23 26 30 36 36 35 30 22 25 26 25 22 21 19 17 15
44 44 44 44 43 42 42 42 40 40 38 32 37 28 27 25 26 26 24 23 21 20 21 19 18 19 20 19 19 18 20 20 26 28 32 32 33 35 29 28 26 25 25 23 21 19 16
43 44 44 44 44 42 41 41 40 39 37 31 33 33 30 26 24 26 23 21 20 21 22 18 18 19 22 20 23 21 22 19 24 23 27 30 30 35 31 27 28 26 25 26 23 21 20
44 44 43 44 44 43 41 41 41 39 36 28 31 31 32 25 26 25 22 21 21 20 20 15 12 15 20 18 19 20 22 23 23 24 25 26 27 31 31 28 32 30 22 26 27 21 21
43 44 44 43 44 44 41 41 41 39 36 31 33 32 32 24 25 23 22 22 21 21 21 19 9 13 17 17 25 28 27 25 25 25 27 25 26 30 31 33 25 20 19 20 19 17 16
44 43 43 43 43 43 42 40 40 40 37 33 34 32 32 27 25 23 24 24 22 21 23 18 9 10 14 23 27 25 27 27 27 25 25 26 28 26 26 30 24 21 18 17 17 16 14
43 43 43 42 42 42 42 40 40 40 38 34 34 36 31 31 24 24 24 26 22 22 22 20 15 10 20 25 26 19 17 19 20 21 20 26 28 27 27 24 23 17 18 20 19 20 13
42 42 43 43 43 42 43 41 39 40 38 35 34 34 32 30 27 27 25 25 27 24 22 22 19 12 22 26 22 20 18 21 17 16 16 18 21 22 23 24 17 18 16 23 18 14 14
42 42 42 42 43 42 42 42 38 39 40 35 35 34 31 29 26 28 29 26 26 24 19 23 17 16 23 21 22 20 20 18 19 17 15 14 14 18 20 22 17 14 13 17 13 10 7
42 42 42 42 42 42 42 42 38 39 39 35 33 32 32 31 30 30 30 34 30 27 23 22 17 13 22 23 22 21 19 20 18 16 15 16 13 12 13 15 13 10 9 12 8 6 5
Lifted_Index
18 18 18 18 18 18 17 17 16 15 14 12 11 10 9 6 2 -0 -1 -1 -1 -1 -0 -0 1 1 3 5 7 8 9 7 4 2 2 3 3 4 5 6 6 6 7 6 6 5 4
18 18 18 18 18 18 17 16 16 15 14 12 11 10 8 5 1 -1 -1 -1 -1 -1 -1 -0 0 1 3 4 6 8 9 8 5 2 2 3 3 4 5 6 6 6 6 6 6 5 4
18 18 18 18 18 18 17 16 15 14 13 12 10 9 7 3 -0 -1 -1 -1 -1 -1 -1 -1 0 1 3 4 6 8 9 8 6 3 2 3 3 4 5 5 6 6 6 6 6 5 4
18 18 18 18 18 18 17 16 15 14 13 12 10 8 6 2 -1 -1 -1 -1 -1 -1 -2 -1 -0 1 3 5 6 7 8 7 5 2 2 3 4 5 5 5 6 6 6 6 6 5 4
18 18 18 18 18 18 17 16 15 14 13 12 10 8 6 3 -0 -1 -0 0 0 -1 -1 -1 -0 1 3 5 6 7 7 6 3 1 1 3 4 5 5 5 5 5 5 5 6 5 5
18 18 19 18 18 18 17 16 15 14 13 12 10 9 7 4 1 -0 0 1 1 1 0 0 0 1 3 5 7 8 7 5 3 1 1 2 4 5 5 5 5 5 5 6 6 6 5
19 19 19 18 18 18 17 16 15 14 13 12 10 9 8 5 2 1 1 1 1 1 1 2 1 2 3 6 8 8 6 4 2 1 1 2 3 5 5 5 5 5 5 6 6 6 5
19 19 18 18 18 17 17 16 15 14 13 12 10 9 8 7 4 1 1 1 2 2 2 2 2 2 3 6 7 7 6 4 2 1 1 2 3 4 5 5 5 5 5 5 6 6 6
19 19 18 18 18 17 17 16 15 14 13 12 11 9 9 8 5 2 2 2 2 1 1 2 2 2 3 5 7 7 6 4 1 0 1 1 2 3 4 5 5 5 5 5 6 6 5
19 19 19 18 18 17 17 16 15 14 13 12 11 9 9 9 7 4 3 2 2 1 1 1 2 2 3 5 6 6 5 3 1 0 0 1 1 3 4 5 5 5 5 5 5 5 4
19 19 19 18 18 17 17 16 15 14 13 12 11 10 10 10 9 6 5 3 2 1 1 1 2 2 3 4 5 5 5 4 2 0 0 0 1 2 3 4 5 5 4 4 4 4 3
19 19 18 18 18 17 17 16 15 14 14 13 11 10 11 11 10 8 6 4 2 1 1 1 2 3 4 5 5 5 5 4 3 1 0 0 1 2 3 3 4 4 3 3 3 3 3
18 18 18 18 18 17 17 16 15 15 14 13 12 11 12 12 10 9 7 4 2 2 2 2 2 3 4 5 6 5 5 4 2 1 0 0 1 2 2 3 3 4 3 2 1 2 2
18 18 18 18 18 17 17 16 15 15 15 14 13 12 12 12 11 9 6 4 2 3 3 4 3 3 4 5 6 5 4 3 2 1 0 0 1 2 2 3 3 3 3 2 1 1 2
18 18 18 18 18 17 17 16 16 15 15 14 13 13 12 12 11 9 6 5 4 4 5 4 4 3 4 5 6 5 4 3 2 1 1 0 1 2 3 3 3 3 3 3 2 1 1
18 18 18 18 18 17 17 16 16 16 15 15 14 13 13 12 11 9 7 6 6 6 6 5 4 4 4 5 6 5 5 4 3 2 2 1 1 2 2 3 3 3 3 3 2 1 1
17 17 17 18 18 17 17 17 16 16 16 15 13 12 13 12 11 9 8 8 8 7 6 5 5 4 4 5 5 5 5 4 4 3 2 2 1 2 2 3 3 3 3 3 3 2 2
17 17 17 18 18 18 17 17 17 17 16 15 13 12 13 12 10 9 9 9 9 8 7 6 5 5 5 5 5 5 5 5 4 3 2 1 1 1 2 3 3 3 3 3 3 3 3
17 17 17 18 18 18 17 17 17 17 17 15 12 11 12 12 10 9 9 9 9 9 8 7 6 6 5 5 4 4 5 5 4 3 2 1 1 1 1 2 3 3 3 3 3 3 3
18 17 18 18 18 18 17 17 17 18 17 15 12 11 12 12 10 9 9 9 9 9 9 7 6 6 5 5 4 4 4 5 5 3 3 2 1 1 1 2 2 3 3 3 3 3 3
18 18 18 18 18 18 18 17 18 18 17 15 12 11 12 11 10 10 9 8 8 8 9 8 7 6 5 5 4 4 4 4 4 4 3 2 1 1 1 1 2 2 2 2 3 3 3
18 18 18 18 18 18 18 17 18 18 17 15 14 13 12 11 10 9 9 8 8 8 9 9 8 7 5 5 5 4 4 4 4 3 3 3 2 1 1 1 1 1 1 2 2 2 2
18 18 18 18 18 18 18 18 18 18 18 17 16 15 13 11 10 9 8 8 8 9 10 10 9 8 7 6 6 6 6 6 5 4 3 3 2 1 1 1 1 1 1 1 2 2 2
18 18 18 18 18 17 18 18 18 18 18 18 17 16 12 10 9 9 9 9 9 9 9 10 10 9 9 8 6 6 6 6 5 4 4 3 2 1 1 1 1 1 1 1 1 2 2
18 18 18 18 18 17 17 18 18 18 18 18 18 16 13 10 10 10 9 9 9 9 9 10 11 11 10 8 6 5 5 5 5 5 4 4 2 1 1 0 1 1 2 3 2 2 2
19 19 19 18 18 17 17 17 17 18 18 18 18 17 14 11 11 11 10 9 9 8 9 10 11 11 9 7 5 4 4 4 4 4 4 4 3 1 0 0 1 2 4 4 3 3 3
19 19 19 18 18 18 17 17 17 17 18 18 19 18 15 13 12 12 11 11 10 9 8 9 10 10 9 7 5 5 4 4 3 3 4 3 2 1 0 0 2 4 6 5 4 4 6
19 19 19 18 18 18 17 17 17 17 18 18 18 18 16 14 13 13 13 13 13 11 10 9 10 9 8 7 6 6 5 4 4 4 3 3 2 2 1 2 4 7 8 7 7 7 8
19 19 18 18 18 18 18 17 17 17 18 18 18 18 17 14 13 14 15 14 14 13 12 11 10 10 9 7 7 6 6 5 4 4 4 3 3 3 2 3 6 8 9 9 9 10 10